OBJECT A, 62729

Orbit data source: Space-Track

You're viewing an Uncataloged Satellite

Recently launched and/or uncataloged satellites may have evolving metadata. Metadata may include but not limited to: Owner, Maufacturer, Bus, Motor, and Mission.

OBJECT A, 62729 is a satellite owned by Yunyao yuhang (CN) in SSO that was launched on Mon, 20 Jan 2025 UTC via a GUSHENXING 1 launch vehicle from the Jiuquan Satellite Launch Center, China (JSC). Unknown objects in Earth's orbit typically refer to objects detected orbiting the Earth but have not yet been identified or cataloged. These objects could be anything from previously untracked satellites, spent rocket stages, debris from satellite collisions, or even natural meteoroids temporarily captured by Earth's gravity.

Loading next visibility...
OBJECT A details
Identifier
62729, 2025-013A
Orbit
SSO
Last TLE update9 hours ago
Origin
Flag of CNYunyao yuhang (CN / PRC)
ManufacturerYunyao yuhang
MissionOperational spacecraft
Bus & MotorYY-1, Unknown motor
Mass~50 kg wet, ~50 kg dry
Launch date (UTC)
2025-01-20 (2 weeks ago)
Launch vehicle
GUSHENXING 1
Launch site
Jiuquan Satellite Launch Center, China (JSC)
Object typeUnknown
Shape & HBRUnknown
Radar Cross SectionMedium (>0.1 m² and <1 m²)

Expand to show TLE details & history

TLE from 9 hours ago
0 OBJECT A
1 62729U 25013A   25035.77901563  .00025324  00000-0  15539-2 0  9991
2 62729  97.6106 202.7570 0013568 232.2072 127.7929 15.10027008  2318
Epoch: 2025-02-04T18:41Z
Definitive object data (Epoch: 2025-02-04T18:41:46.95Z)
Latitude-0.00004°
Longitude147.13197°
Altitude544.947 km
Speed7.587 km/s
True Right ascension13h 31m 01s
True Declination0° 00' 00"
Sunlit
Object was in full shadow at TLE epoch
Visualization TLE readout
Latitude-75.47913°
Longitude-63.35971°
Altitude555.028 km
Speed7.588 km/s
Apparent Right ascension19h 04m 47s
Apparent Declination-63° 36' 32"
Sunlit
Object is in daylight
Visualization observer readout
Local Sidereal Time05:48:51
Azimuth199.109° SSW
Elevation-63.789°
Doppler factor1
Orbital elements
Apogee altitude542.483 km
Perigee altitude523.728 km
Semi-major axis6,911.243 km
Eccentricity0.0013568
Inclination97.6106°
RAAN202.757°
Arg. of periapsis232.2072°
True anomaly127.91564°
Mean anomaly127.7929°
Eccentric anomaly127.85428°
Mean motion3.77754 °/min
BSTAR0.0015539
Orbital period95.3 mins
Loading maneuver chart data...
Loading historical data...
Loading historical data...
Loading historical data...
Loading historical data...
Loading historical data...
Loading historical data...
Loading historical data...
Other satellites on launch #13 in the year 2025 (2025-01-20 UTC)

OBJECT A Visibility forecast

Observer location: undefined°, undefined

Span
Click to sort rows by Start time (UTC) header in descending order
Start Az.
Max El. time (UTC)
Max El. Az.
Max El.
End time (UTC)
End Az.
6 mins2025-02-05 10:44:07.166Z146.175° SSE2025-02-05 10:47:07.166Z61.495° ENE38°2025-02-05 10:50:07.166Z0.347° NNE
6 mins2025-02-05 23:54:07.166Z12.408° NNE2025-02-05 23:56:07.166Z12.892° NNE44.112°2025-02-06 00:00:07.166Z193.297° SSW
|